Regional Weather Roundup
Issued by NWS

Home | Current Version | Previous Version | Graphics & Text | Print | Product List | Glossary On
Versions: 1 2 3 4 5 6 7 8 9 10 11 12 13 14 15 16 17 18 19 20 21 22 23 24 25 26 27 28 29 30 31 32 33 34 35 36 37 38 39 40 41 42 43 44 45 46 47 48 49 50
455
ASUS43 KMKX 110920
RWRWI

WISCONSIN REGIONAL WEATHER ROUNDUP
NATIONAL WEATHER SERVICE MILWAUKEE/SULLIVAN WI
300 AM CST MON DEC 11 2017

NOTE: "FAIR" INDICATES FEW OR NO CLOUDS BELOW 12,000 FEET WITH NO
SIGNIFICANT WEATHER AND/OR OBSTRUCTIONS TO VISIBILITY.

WIZ001-002-006>008-014>016-023>028-111000-
NORTHWEST WISCONSIN

CITY           SKY/WX    TMP DP  RH WIND       PRES   REMARKS
SUPERIOR ARPT  LGT SNOW  18  16  93 CALM      29.84F
ASHLAND        CLOUDY    15  11  83 CALM      29.86F FOG
HAYWARD        LGT SNOW  20  16  84 S5        29.83F FOG     WCI  13
SIREN          LGT SNOW  22  20  93 S6        29.83F WCI  15
CUMBERLAND     LGT SNOW  19  18  93 SE8       29.82F VSB 1   WCI   9
RICE LAKE      LGT SNOW  19  19  96 SE6       29.86F VSB 1   WCI  11
CHETEK         CLOUDY    19  18  94 S3        29.87F
LADYSMITH      LGT SNOW  19  17  90 SE5       29.88F WCI  12
EAU CLAIRE     LGT SNOW  23  21  92 S7        29.88F VSB 3/4 WCI  15
MENOMONIE      LGT SNOW  24  23  96 SE5       29.89F WCI  18
NEW RICHMOND   LGT SNOW  24  23  95 S10       29.83F WCI  14
OSCEOLA        LGT SNOW  26  26 100 S9        29.87F WCI  16
$$

WIZ003>005-009-010-017-018-111000-
NORTH CENTRAL WISCONSIN

CITY           SKY/WX    TMP DP  RH WIND       PRES   REMARKS
MANITOWISH WTR CLOUDY    12  12 100 S6        29.84F WCI   3
ARBOR VITAE    CLOUDY    17  14  89 S5        29.84F WCI  10
WOODRUFF       CLOUDY    17  14  89 S5        29.84F WCI  10
RHINELANDER    CLOUDY    13  10  88 S5        29.87F WCI   5
EAGLE RIVER    CLOUDY    12   9  85 S3        29.85F
LAND O LAKES   CLOUDY    13  10  88 S3        29.86F
PHILLIPS       CLOUDY    16  13  90 S8        29.85F WCI   5
TOMAHAWK       CLOUDY    14  11  87 CALM      29.89F
MEDFORD        LGT SNOW  17  14  85 SE6       29.87F WCI   9
MERRILL        CLOUDY    17  13  86 SE3       29.92F
$$

WIZ029-030-035-036-043>047-111000-
CENTRAL WISCONSIN

CITY           SKY/WX    TMP DP  RH WIND       PRES   REMARKS
WAUSAU         CLOUDY    19  13  77 SE6       29.90F WCI  11
MOSINEE        CLOUDY    19  16  86 E3        29.93F
MARSHFIELD     LGT SNOW  20  17  88 SE6       29.90F FOG     WCI  12
STEVENS POINT  CLOUDY    18  16  93 CALM      29.95F
WAUPACA        CLOUDY    23  17  79 CALM      29.98F
WAUTOMA        CLOUDY    20  16  84 CALM      29.98F
WISC RAPIDS    LGT SNOW  20  16  84 SE5       29.94F FOG     WCI  13
CAMP DOUGLAS   CLOUDY    25  19  80 S3        29.94F BLWGSNOW
$$

WIZ011>013-019>022-031-037>040-048>050-111000-
NORTHEAST WISCONSIN

CITY           SKY/WX    TMP DP  RH WIND       PRES   REMARKS
ANTIGO         CLOUDY    17  12  81 S5        29.91F WCI  10
SHAWANO        CLOUDY    22  15  73 CALM      29.99S
OCONTO         CLOUDY    18  11  74 CALM      30.01S
STURGEON BAY   CLOUDY    17  10  74 E3        30.01S
GREEN BAY      CLOUDY    21  14  74 SE5       30.00F WCI  15
MANITOWOC      CLOUDY    19  14  81 NW3       30.01F
APPLETON       CLOUDY    23  14  68 E3        29.97S
CLINTONVILLE   CLOUDY    21  16  79 CALM      30.00S
OSHKOSH        CLOUDY    21  16  81 CALM      29.97F
$$

WIZ032>034-041-042-053>061-111000-
SOUTHWEST WISCONSIN

CITY           SKY/WX    TMP DP  RH WIND       PRES   REMARKS
LA CROSSE      LGT SNOW  26  24  92 SE9       29.93F VSB 3/4 WCI  17
SPARTA         LGT SNOW  25  21  85 S3        29.95F
VIROQUA        CLOUDY    24  22  93 S7        29.93F WCI  16
BOSCOBEL       LGT SNOW  27  21  78 CALM      29.98S
PRAIRIE DU CHI CLOUDY    27  20  77 E5        29.97F WCI  21
PLATTEVILLE    CLOUDY    26  24  95 S5        29.98R WCI  20
$$

WIZ056-057-062-063-064-067-068-111000-
SOUTH CENTRAL WISCONSIN

CITY           SKY/WX    TMP DP  RH WIND       PRES   REMARKS
REEDSBURG      CLOUDY    24  19  80 S3        29.97R
BARABOO/DELLS  CLOUDY    24  18  78 SE3       29.96S
LONE ROCK      LGT SNOW  24  21  88 CALM      29.99R FOG
MINERAL POINT  CLOUDY    27  25  93 S3        29.97R
MADISON        CLOUDY    24  18  77 S5        29.97F WCI  18
MIDDLETON      CLOUDY    25  21  86 CALM      29.98S
WATERTOWN      CLOUDY    21  17  86 CALM      29.98S
MONROE         CLOUDY    23  19  86 S6        29.97F WCI  16
JANESVILLE     CLOUDY    27  21  80 SE5       29.98F WCI  21
$$

WIZ051-052-058>065-066-070>072-111000-
SOUTHEAST WISCONSIN

CITY           SKY/WX    TMP DP  RH WIND       PRES   REMARKS
MILWAUKEE      CLOUDY    22  15  75 CALM      30.00F
WAUKESHA       PTCLDY    19  14  79 CALM      29.99F
MILWAUKEE/TIMM CLOUDY    21  14  73 CALM      30.00F
RACINE         CLOUDY    20  16  84 CALM      30.01F
BURLINGTON     CLOUDY    26  26 100 CALM      29.99F
KENOSHA        PTCLDY    19  13  77 CALM      29.99F
FOND DU LAC    CLOUDY    20  14  77 CALM      29.99F
SHEBOYGAN      CLOUDY    22  17  81 CALM      30.00F
WEST BEND      PTCLDY    18  16  93 CALM      29.99R
JUNEAU         CLOUDY    20  15  81 CALM      29.99S
$$

LSZ147-162-111000-
LAKE SUPERIOR

STATION/POSITION TIME  TEMP    WIND        PRES    WAVE
                       AIR SEA DIR/SP/G            HT/PER
                 (UTC) (F)     (DEG/KT/KT) (MB)    (FT/S)
DEVILS ISLAND    0900   21     180/  8/ 12 1011.9F
SAXON HARBOR     0830   18                 1011.9F
$$

LMZ867-665-643>646-111000-
LAKE MICHIGAN

STATION/POSITION TIME  TEMP    WIND        PRES    WAVE
                       AIR SEA DIR/SP/G            HT/PER
                 (UTC) (F)     (DEG/KT/KT) (MB)    (FT/S)
NORTHPORT PIER   0840   18     280/  2/  5 1016.3S
KEWAUNEE LAKESHO 0854   18     290/  2/  3 1015.4F
SHEBOYGAN LAKESH 0900   26     230/  3/  4 1016.8F
PORT WASHINGTON  0840   24     270/  4/  5 1017.3F
MILWAUKEE LAKESH 0900   26     230/  4/  4   N/A
KENOSHA   LAKESH 0900   26     240/  1/  2 1015.9
$$

TC  - TEMPERATURE IN CELSIUS
VSB - VISIBILITY IN STATUTE MILES
WCI - WIND CHILL INDEX
HX  - HEAT INDEX





USA.gov is the U.S. government's official web portal to all federal, state and local government web resources and services.